Total_Precipitation_Accumulation
0.44 0.29 0.42 0.47 0.44 0.45 0.43 0.44 0.44 0.42 0.40 0.37 0.33 0.32 0.30 0.28 0.30 0.33 0.32 0.24 0.18 0.17 0.16 0.24 0.29 0.23 0.24 0.29 0.32 0.37 0.43 0.44 0.36 0.30 0.30 0.32 0.31 0.35 0.48 0.59 0.75 0.81 0.57
0.37 0.29 0.47 0.54 0.53 0.53 0.50 0.48 0.48 0.44 0.38 0.38 0.37 0.34 0.32 0.32 0.34 0.32 0.28 0.22 0.18 0.16 0.18 0.25 0.31 0.27 0.27 0.34 0.44 0.51 0.56 0.51 0.43 0.33 0.41 0.46 0.41 0.42 0.49 0.57 0.84 0.83 0.51
0.35 0.32 0.46 0.60 0.62 0.59 0.56 0.53 0.55 0.50 0.41 0.40 0.41 0.39 0.34 0.30 0.29 0.26 0.26 0.22 0.19 0.18 0.19 0.25 0.31 0.29 0.29 0.39 0.50 0.53 0.54 0.53 0.46 0.44 0.78 1.33 0.94 0.56 0.52 0.61 0.67 0.54 0.46
0.35 0.38 0.49 0.68 0.72 0.69 0.65 0.63 0.75 0.69 0.57 0.51 0.48 0.45 0.37 0.32 0.34 0.39 0.39 0.30 0.24 0.24 0.22 0.25 0.32 0.29 0.31 0.39 0.44 0.42 0.45 0.46 0.49 0.67 1.23 1.63 1.40 0.82 0.72 0.71 0.64 0.54 0.49
0.38 0.41 0.65 0.80 0.73 0.71 0.72 0.85 1.01 0.92 0.82 0.70 0.59 0.51 0.46 0.43 0.44 0.50 0.43 0.39 0.35 0.31 0.29 0.33 0.36 0.32 0.32 0.33 0.33 0.34 0.42 0.58 0.73 0.86 1.21 1.37 1.41 1.03 0.84 0.75 0.70 0.58 0.56
0.41 0.43 0.59 0.73 0.73 0.76 0.81 0.92 1.00 1.03 1.05 0.85 0.69 0.63 0.61 0.59 0.57 0.59 0.57 0.49 0.46 0.41 0.39 0.40 0.37 0.37 0.37 0.36 0.33 0.36 0.49 0.70 0.84 1.00 1.22 1.26 1.23 0.94 0.80 0.75 0.74 0.71 0.68
0.39 0.40 0.46 0.63 0.65 0.70 0.80 0.89 0.92 1.00 1.09 0.94 0.72 0.72 0.74 0.67 0.67 0.69 0.70 0.59 0.53 0.50 0.48 0.48 0.43 0.39 0.38 0.38 0.37 0.40 0.48 0.53 0.69 0.93 1.20 1.34 1.06 0.77 0.76 0.72 0.73 0.75 0.76
0.52 0.47 0.48 0.59 0.64 0.68 0.77 0.89 0.84 0.90 1.02 0.96 0.86 0.80 0.74 0.72 0.75 0.76 0.72 0.66 0.59 0.57 0.55 0.55 0.52 0.44 0.40 0.39 0.40 0.45 0.48 0.43 0.53 0.68 0.78 1.13 1.11 0.90 0.72 0.72 0.77 0.70 0.68
0.90 0.77 0.60 0.52 0.54 0.61 0.73 0.85 0.89 0.90 0.94 0.92 0.98 0.93 0.89 0.85 0.79 0.74 0.71 0.68 0.64 0.63 0.61 0.59 0.53 0.48 0.44 0.39 0.38 0.42 0.47 0.42 0.53 0.61 0.59 0.93 1.04 0.91 0.71 0.66 0.72 0.75 0.71
0.96 0.91 0.79 0.70 0.67 0.67 0.65 0.81 1.02 1.10 1.07 0.98 0.97 0.96 0.95 0.89 0.79 0.74 0.66 0.65 0.66 0.66 0.69 0.68 0.59 0.53 0.46 0.41 0.39 0.44 0.47 0.42 0.46 0.48 0.56 0.72 0.94 0.91 0.79 0.60 0.55 0.55 0.54
0.77 0.79 0.81 0.84 0.87 0.93 0.93 0.92 1.14 1.22 1.15 0.96 0.87 0.90 0.91 0.77 0.80 0.80 0.68 0.77 0.74 0.76 0.78 0.77 0.70 0.62 0.51 0.41 0.43 0.48 0.40 0.39 0.51 0.48 0.52 0.60 0.78 0.82 0.75 0.62 0.47 0.42 0.38
0.63 0.64 0.65 0.69 0.77 0.89 0.97 1.30 1.50 1.30 1.19 0.92 0.91 0.81 0.87 0.94 1.02 0.84 0.77 0.91 0.92 0.94 0.89 0.86 0.85 0.73 0.56 0.41 0.43 0.43 0.32 0.37 0.47 0.38 0.40 0.52 0.70 0.72 0.63 0.55 0.42 0.36 0.34
0.49 0.48 0.48 0.47 0.49 0.58 0.78 1.12 1.41 1.52 1.48 1.40 1.16 0.93 0.94 0.82 0.72 0.67 0.69 0.78 0.85 0.91 0.85 0.85 0.81 0.66 0.56 0.50 0.44 0.36 0.31 0.33 0.45 0.45 0.45 0.54 0.64 0.70 0.63 0.53 0.41 0.35 0.31
0.47 0.48 0.45 0.44 0.41 0.43 0.52 0.69 0.89 1.03 1.12 1.14 0.99 0.88 0.95 0.84 0.74 0.75 0.75 0.75 0.74 0.81 0.89 0.90 0.82 0.69 0.57 0.49 0.45 0.40 0.37 0.36 0.47 0.59 0.60 0.46 0.55 0.65 0.65 0.54 0.44 0.37 0.34
0.52 0.59 0.56 0.47 0.44 0.43 0.47 0.54 0.62 0.77 0.86 0.89 0.91 0.86 0.90 0.90 0.87 0.84 0.77 0.76 0.70 0.76 0.85 0.89 0.81 0.72 0.66 0.58 0.54 0.54 0.51 0.50 0.52 0.53 0.58 0.52 0.58 0.71 0.77 0.69 0.56 0.43 0.34
0.53 0.60 0.65 0.57 0.52 0.48 0.46 0.49 0.54 0.64 0.72 0.76 0.75 0.75 0.85 0.94 0.93 0.89 0.84 0.85 0.82 0.82 0.93 0.91 0.79 0.78 0.75 0.65 0.53 0.51 0.51 0.51 0.53 0.49 0.53 0.61 0.61 0.61 0.76 0.85 0.79 0.56 0.45
0.53 0.56 0.59 0.60 0.60 0.59 0.57 0.56 0.56 0.63 0.73 0.75 0.72 0.67 0.69 0.78 0.83 0.86 0.86 0.86 0.90 0.98 1.02 1.04 0.85 0.80 0.72 0.62 0.56 0.49 0.44 0.44 0.41 0.42 0.39 0.41 0.48 0.57 0.69 0.84 0.87 0.71 0.59
0.46 0.47 0.52 0.54 0.59 0.65 0.68 0.69 0.71 0.71 0.78 0.75 0.74 0.68 0.63 0.68 0.76 0.89 0.90 0.86 0.89 1.01 1.08 1.11 0.99 0.89 0.77 0.69 0.69 0.60 0.50 0.46 0.40 0.41 0.42 0.35 0.42 0.42 0.56 0.63 0.70 0.71 0.68
0.41 0.41 0.44 0.48 0.51 0.62 0.70 0.73 0.82 0.84 0.86 0.83 0.82 0.74 0.71 0.76 0.83 1.00 1.10 1.10 1.09 1.09 1.07 1.02 1.04 0.98 0.87 0.81 0.77 0.73 0.63 0.52 0.49 0.44 0.44 0.41 0.34 0.36 0.43 0.36 0.40 0.44 0.52
0.32 0.34 0.38 0.43 0.45 0.53 0.68 0.80 0.96 1.07 1.04 1.06 1.00 0.89 0.91 1.05 1.18 1.32 1.31 1.38 1.43 1.29 1.22 1.15 1.15 1.08 0.96 0.92 0.84 0.72 0.67 0.57 0.57 0.54 0.53 0.48 0.43 0.37 0.40 0.34 0.30 0.27 0.31
0.22 0.25 0.31 0.34 0.42 0.50 0.58 0.73 0.95 1.22 1.33 1.43 1.39 1.21 1.16 1.28 1.52 1.72 1.67 1.71 1.71 1.55 1.48 1.55 1.71 1.64 1.34 1.10 1.04 0.86 0.70 0.56 0.61 0.57 0.53 0.51 0.47 0.50 0.52 0.45 0.33 0.29 0.22
0.15 0.17 0.22 0.30 0.39 0.48 0.57 0.75 0.91 1.06 1.07 1.24 1.40 1.38 1.30 1.29 1.43 1.56 1.81 1.88 1.78 1.77 1.88 1.92 2.18 2.26 1.84 1.45 1.38 1.41 1.13 0.92 0.66 0.48 0.48 0.48 0.50 0.64 0.60 0.45 0.36 0.29 0.23
0.10 0.12 0.15 0.22 0.32 0.45 0.61 0.85 1.07 1.26 1.34 1.41 1.34 1.43 1.44 1.37 1.40 1.49 1.65 1.79 1.78 1.84 1.89 1.99 2.30 2.68 2.41 1.95 1.70 1.81 1.48 1.28 1.08 0.64 0.44 0.44 0.51 0.64 0.69 0.61 0.50 0.42 0.32
0.08 0.09 0.12 0.20 0.35 0.56 0.78 1.04 1.30 1.50 1.54 1.43 1.48 1.51 1.39 1.33 1.29 1.36 1.50 1.62 1.72 1.74 1.84 1.91 2.02 2.44 2.71 2.41 2.13 1.78 1.45 1.32 1.35 1.10 0.71 0.56 0.60 0.62 0.66 0.65 0.60 0.59 0.53
0.14 0.16 0.23 0.43 0.68 0.93 1.14 1.41 1.70 1.70 1.59 1.50 1.50 1.47 1.42 1.43 1.39 1.38 1.51 1.57 1.58 1.63 1.72 2.00 2.23 2.47 2.61 2.53 2.43 2.26 2.03 1.71 1.28 1.30 1.22 0.93 0.78 0.69 0.69 0.70 0.69 0.66 0.63
0.44 0.58 0.79 1.05 1.24 1.33 1.46 1.61 1.73 1.71 1.72 1.67 1.49 1.39 1.39 1.43 1.49 1.53 1.58 1.57 1.53 1.56 1.64 1.83 2.08 2.29 2.55 2.69 2.57 2.37 2.23 2.03 1.73 1.55 1.33 1.21 1.12 0.90 0.87 0.85 0.77 0.74 0.73